{"data":{"norad_id":58907,"epoch":"2026-05-25T03:37:37.525728Z","epoch_age_seconds":52191,"freshness":"FRESH","line1":"1 58907U 24023C   26145.15112877  .00002047  00000+0  19795-3 0  9996","line2":"2 58907  50.0010  73.2680 0006310 306.9802  53.0564 14.96957039125870","mean_motion":14.96957039,"eccentricity":0.000631,"inclination_deg":50.001,"raan_deg":73.268,"arg_perigee_deg":306.9802,"mean_anomaly_deg":53.0564,"bstar":0.00019795,"rev_number":12587,"period_min":96.195145383862,"perigee_km":571.91665147777,"apogee_km":580.69315716102,"semimajor_km":6954.4419043194,"source":"CELESTRAK","updated_at":"2026-05-25T13:38:01.048169Z"}}